Dati Storici

Data ora Umidita' aria (%) Temperatura aria (°C) Rad globale (W/m²) Gonioanemometro (°) Tacoanemometro (m/s) Pioggia (mm)
12-06-2020 06:50 80.4 % 18.393 -51.449 -0.009 0 0
12-06-2020 06:40 83.2 % 17.902 -54.397 -0.009 0 0
12-06-2020 06:30 84.7 % 17.358 -78.916 -0.008 0 0
12-06-2020 06:20 89.9 % 16.958 -81.277 -0.003 0 0
12-06-2020 06:10 92.6 % 16.169 -81.739 0.999 0 0
12-06-2020 06:00 94.8 % 15.455 -82.236 0.799 0 0
12-06-2020 05:50 97.7 % 15.368 -79.059 0.005 0 0
12-06-2020 05:40 97.7 % 14.509 -79.736 2.072 0 0
12-06-2020 05:30 97.7 % 14.29 -81.487 0.01 0 0
12-06-2020 05:20 97.8 % 13.914 -82.363 0.708 0 0
12-06-2020 05:10 97.8 % 13.752 -81.38 0.561 0 0
12-06-2020 05:00 97.8 % 13.844 -78.837 0.016 0 0
12-06-2020 04:50 97.8 % 13.986 -82.076 0.018 0 0
12-06-2020 04:40 97.8 % 13.854 -81.797 0.008 0 0
12-06-2020 04:30 97.8 % 14.006 -79.263 0.01 0 0
12-06-2020 04:20 97.8 % 14.096 -82.147 0.429 0 0
12-06-2020 04:10 97.8 % 14.141 -82.927 0.009 0 0
12-06-2020 04:00 97.8 % 14.162 -77.449 0.009 0 0
12-06-2020 03:50 97.8 % 14.201 -69.793 0.009 0 0
12-06-2020 03:40 97.8 % 14.167 -82.453 0.011 0 0

I dati sono presentati in modo automatico a scopo informativo. In seguito a verifica i dati possono subire modifiche o essere invalidati e non riportati negli archivi definitivi.